Lid_Strength_Index
6 7 8 7 7 7 9 11 12 11 8 10 11 11 9 7 6 7 6 6 5 5 3 3 4 3 3 3 3 3 2 0 0 0 1 1 1 -0 -0 -0 1 0 1 1
7 9 8 7 7 8 9 11 12 10 8 10 11 11 9 7 7 6 7 6 6 5 4 3 2 2 1 1 1 1 1 0 0 1 1 0 1 0 0 0 -0 -0 0 0
8 8 7 7 7 8 9 10 12 12 10 9 10 13 10 8 7 7 6 5 5 5 5 3 3 2 2 1 1 1 0 0 0 1 1 1 1 1 1 2 1 -0 0 -0
7 6 7 8 9 8 10 7 9 11 12 14 10 15 12 10 9 8 7 6 6 5 4 3 3 3 2 2 1 -0 -0 -0 1 0 1 1 2 2 1 1 0 -0 -1 -1
8 7 7 8 8 8 9 8 9 10 11 12 13 14 13 10 11 9 7 6 5 4 4 4 3 3 2 1 1 -0 -0 0 0 1 1 1 1 1 1 1 0 -0 -1 -1
7 5 6 7 7 7 7 9 9 10 9 13 13 14 14 13 10 9 7 6 5 4 4 4 3 3 2 1 0 0 1 1 0 0 0 0 1 1 2 1 1 1 0 0
8 8 7 7 8 7 8 9 12 13 13 14 12 14 13 9 8 8 7 6 5 4 5 4 3 3 2 1 1 2 2 1 1 0 0 0 0 0 1 1 2 1 1 1
10 12 8 7 8 9 9 9 12 16 15 13 12 15 13 8 7 6 6 6 5 6 5 4 3 2 3 3 3 2 2 1 1 1 1 1 0 2 2 1 1 1 1 -0
10 11 8 8 7 7 9 10 8 12 12 13 13 12 10 8 8 7 7 6 7 6 5 4 4 4 3 3 3 2 2 1 1 2 2 1 1 1 2 1 1 1 0 0
8 11 8 8 7 7 7 7 11 10 15 15 14 14 15 11 10 8 8 7 6 5 4 4 4 5 3 4 2 1 1 1 2 1 2 2 1 1 1 1 1 0 -0 -0
7 9 9 8 9 9 9 9 10 10 12 15 16 16 10 10 9 9 8 6 6 5 5 5 5 4 4 2 2 1 1 1 2 2 2 2 2 2 2 1 1 1 -0 -0
7 9 11 11 7 7 8 10 11 13 15 14 14 15 8 8 7 7 7 6 6 5 5 5 5 4 3 3 2 2 3 3 2 2 2 2 3 2 2 2 3 1 1 1
7 10 12 11 9 8 10 9 10 10 11 15 15 15 7 7 7 6 6 6 6 6 6 5 4 3 3 3 2 3 3 4 3 3 3 4 3 3 3 4 3 3 3 2
6 10 11 13 12 10 12 10 10 11 13 14 13 12 10 8 8 7 6 6 5 5 4 4 4 3 3 3 3 4 3 3 3 3 4 3 3 3 3 3 3 3 3 4
7 11 11 11 10 10 10 11 10 11 11 13 12 11 10 8 8 6 6 6 6 5 5 4 3 3 3 4 3 3 3 3 4 4 3 3 4 3 4 3 4 3 3 3
7 12 10 12 10 10 11 10 10 10 10 10 10 11 7 6 6 6 6 6 6 6 5 4 4 4 5 4 4 4 4 4 3 3 3 4 3 4 4 4 4 4 4 4
9 10 12 14 11 11 14 11 10 10 9 9 12 9 7 7 7 7 6 6 6 5 4 4 5 5 5 5 4 5 4 4 3 3 3 3 3 4 4 3 3 3 4 2
9 10 10 13 12 17 11 8 8 9 8 8 8 8 7 6 6 5 5 5 5 5 5 5 5 5 5 4 4 4 4 4 3 3 3 3 3 4 4 4 4 4 4 4
7 9 12 14 14 12 11 9 9 10 10 7 8 7 6 6 6 6 4 4 5 5 5 5 5 5 5 4 4 4 4 4 4 4 4 4 3 5 4 5 5 5 5 5
7 7 10 12 15 17 11 8 6 7 12 7 6 7 7 6 9 7 4 4 4 5 5 5 4 4 4 4 3 4 5 5 5 5 4 4 4 4 4 5 5 5 4 4
10 10 12 13 13 12 8 7 5 12 11 6 6 6 6 7 6 5 4 4 4 5 5 4 4 5 4 3 4 5 5 5 4 4 4 4 4 4 4 5 5 5 4 4
11 11 12 12 13 14 6 7 10 7 5 5 5 5 5 5 5 4 5 5 5 5 4 4 4 5 4 4 4 5 5 4 4 3 4 4 4 4 5 5 4 3 3 3
11 9 10 10 10 7 5 6 5 4 5 5 5 4 4 4 5 5 4 5 6 5 4 4 5 4 4 4 4 5 4 4 4 4 4 4 4 5 5 4 3 3 3 4
8 7 9 9 8 7 6 5 5 4 4 4 4 4 4 4 5 5 6 6 5 5 5 4 5 4 4 3 4 4 4 4 4 4 3 4 4 4 4 3 4 3 2 3
7 7 9 9 7 6 5 5 4 5 4 4 4 4 4 4 5 5 5 5 5 5 4 4 5 4 4 3 4 3 3 4 3 3 3 3 2 2 2 2 3 2 2 4
6 8 8 9 6 6 6 4 4 4 4 4 4 5 4 4 5 5 6 5 5 5 5 5 4 4 4 3 3 3 2 2 2 3 3 4 3 1 1 1 1 8 8 8